Regional Weather Roundup
Issued by NWS Binghamton, NY

Home | Current Version | Previous Version | Text Only | Print | Product List | Glossary On
Versions: 1 2 3 4 5 6 7 8 9 10 11 12 13 14 15 16 17 18 19 20 21 22 23 24 25 26 27 28 29 30 31 32 33 34 35 36 37 38 39 40 41 42 43 44 45 46 47 48 49 50
000
ASUS41 KBGM 051310
RWRBGM

REGIONAL WEATHER ROUNDUP
NATIONAL WEATHER SERVICE BINGHAMTON NY
900 AM EDT THU MAY 05 2016

Note: "fair" indicates few or no clouds below 12,000 feet with no
significant weather and/or obstructions to visibility.

* = Station(s) that does not report precipitation, such as rain,
snow, etc, also no thunder or fog.

NYZ009-015>018-022>025-036-037-044>046-055>057-062-051400
...Central New York...

CITY           SKY/WX    TMP DP  RH WIND       PRES   REMARKS
Binghamton     CLOUDY    46  41  82 E5        29.74R
Cortland       CLOUDY    48  41  76 CALM      29.77R
Dansville      CLOUDY    53  47  79 NW5       29.77R
Elmira         CLOUDY    51  43  74 NE8       29.74S
Ithaca         PTSUNNY   48  42  80 VRB5      29.77R
Hamilton       CLOUDY    48  43  81 NE7       29.78R
Hornell        CLOUDY    50  45  81 NW5       29.78F
Monticello     CLOUDY    45  43  93 CALM      29.74F
Norwich        CLOUDY    48  41  76 NE5       29.78R
Penn Yan       CLOUDY    51  43  74 NE5       29.77S
Rome           MOSUNNY   54  42  64 VRB5      29.79S
Sidney         CLOUDY    50  48  93 CALM      29.76S
Syracuse       PTSUNNY   50  43  77 NE7       29.79R
$$

PAZ038>040-043-044-047-048-072-051400
...Northeast Pennsylvania...

CITY           SKY/WX    TMP DP  RH WIND       PRES   REMARKS
Hazleton       CLOUDY    46  43  87 N7        29.72S
Scranton       CLOUDY    49  42  77 NE10      29.71F
$$
&&
KEY
WCI = Wind Chill Index
VSB = Visibility
HX  = Heat Index
$$



USA.gov is the U.S. government's official web portal to all federal, state and local government web resources and services.